Terminal Aerodrome Forecast
Issued by NWS

Home | Current Version | Previous Version | Graphics & Text | Print | Product List | Glossary On
Versions: 1 2 3 4 5 6 7 8 9 10 11 12 13 14 15 16 17 18 19 20 21 22 23 24 25 26 27
000
FTUS43 KICT 171400 AAA
TAFCNU
TAF AMD
KCNU 171440Z 1715/1812 20008KT 5SM BR FEW008
     FM171800 25010KT P6SM SCT035
     FM180000 05010KT P6SM SCT030=

USA.gov is the U.S. government's official web portal to all federal, state and local government web resources and services.